This is the latest recevied weather packets stored in our database for station/object OE3APM-13. If no packets are shown the sender has not sent any weather packets the latest 10 day(s).
| Time | Temp. | Humidity | Pressure | Rain* | Wind** | Luminosity | Snow |
|---|---|---|---|---|---|---|---|
| 1787932986 | 28.89° C | 45% | 1012.6 hPa | 0 mm | - | 74 W/m² | - |
| 1787932686 | 28.89° C | 45% | 1012.6 hPa | 0 mm | - | 74 W/m² | - |
| 1787932384 | 28.89° C | 45% | 1012.9 hPa | 0 mm | - | 72 W/m² | - |
| 1787932087 | 29.44° C | 45% | 1012.9 hPa | 0 mm | - | 79 W/m² | - |
| 1787931783 | 29.44° C | 44% | 1012.9 hPa | 0 mm | - | 72 W/m² | - |
| 1787931483 | 29.44° C | 44% | 1012.9 hPa | 0 mm | - | 67 W/m² | - |
| 1787931184 | 30° C | 43% | 1012.8 hPa | 0 mm | - | 77 W/m² | - |
| 1787930884 | 30° C | 42% | 1012.9 hPa | 0 mm | - | 102 W/m² | - |
| 1787930583 | 30° C | 41% | 1013 hPa | 0 mm | - | 146 W/m² | - |
| 1787930283 | 30° C | 42% | 1013 hPa | 0 mm | - | 246 W/m² | - |
| 1787929983 | 30.56° C | 41% | 1013.4 hPa | 0 mm | - | 281 W/m² | - |
| 1787929682 | 30.56° C | 41% | 1013.4 hPa | 0 mm | - | 141 W/m² | - |
| 1787929383 | 30.56° C | 40% | 1012.9 hPa | 0 mm | - | 174 W/m² | - |
| 1787929083 | 31.11° C | 40% | 1012.4 hPa | 0 mm | - | 121 W/m² | - |
| 1787928782 | 31.11° C | 40% | 1012.2 hPa | 0 mm | - | 204 W/m² | - |
| 1787928482 | 31.11° C | 40% | 1012.3 hPa | 0 mm | - | 323 W/m² | - |
| 1787928181 | 31.11° C | 39% | 1012.4 hPa | 0 mm | - | 220 W/m² | - |
| 1787927882 | 31.11° C | 39% | 1012.5 hPa | 0 mm | - | 417 W/m² | - |
| 1787927581 | 31.11° C | 39% | 1012.5 hPa | 0 mm | - | 301 W/m² | - |
| 1787927282 | 31.11° C | 39% | 1012.5 hPa | 0 mm | - | 341 W/m² | - |
| 1787926974 | 31.67° C | 40% | 1012.4 hPa | 0 mm | - | 424 W/m² | - |
| 1787926674 | 31.11° C | 39% | 1012.3 hPa | 0 mm | - | 438 W/m² | - |
| 1787926374 | 31.11° C | 40% | 1012.3 hPa | 0 mm | - | 441 W/m² | - |
| 1787926074 | 31.11° C | 40% | 1012.4 hPa | 0 mm | - | 401 W/m² | - |
| 1787925773 | 31.11° C | 39% | 1012.4 hPa | 0 mm | - | 475 W/m² | - |
* Rain latest hour (hover to see other rain measurements)
** Current wind speed in m/s (hover to see current wind gust speed)